This is the latest recevied weather packets stored in our database for station/object F5LKO-13. If no packets are shown the sender has not sent any weather packets the latest 10 day(s).
| Time | Temp. | Humidity | Pressure | Rain* | Wind** | Luminosity | Snow |
|---|---|---|---|---|---|---|---|
| 1777986576 | 20° C | 99% | 1015 hPa | 0 mm | - | 83 W/m² | - |
| 1777986271 | 19.44° C | 99% | 1015 hPa | 0 mm | - | 89 W/m² | - |
| 1777985965 | 18.89° C | 99% | 1015 hPa | 0 mm | - | 105 W/m² | - |
| 1777985658 | 18.89° C | 99% | 1015.1 hPa | 0 mm | - | 106 W/m² | - |
| 1777985352 | 17.78° C | 99% | 1015.1 hPa | 0 mm | - | 105 W/m² | - |
| 1777985054 | 19.44° C | 99% | 1015.1 hPa | 0 mm | - | 67 W/m² | - |
| 1777984739 | 18.33° C | 99% | 1015.1 hPa | 0 mm | - | 63 W/m² | - |
| 1777984433 | 19.44° C | 99% | 1015.1 hPa | 0 mm | - | 82 W/m² | - |
| 1777984127 | 19.44° C | 99% | 1015.1 hPa | 0 mm | - | 37 W/m² | - |
| 1777983822 | 17.78° C | 99% | 1015.1 hPa | 0 mm | - | 104 W/m² | - |
| 1777983516 | 17.22° C | 99% | 1015.2 hPa | 0 mm | - | 36 W/m² | - |
| 1777983218 | 15.56° C | 99% | 1015.2 hPa | 0 mm | - | 74 W/m² | - |
| 1777982904 | 15° C | 99% | 1015.2 hPa | 0 mm | - | 34 W/m² | - |
| 1777982598 | 14.44° C | 99% | 1015.2 hPa | 0 mm | - | 21 W/m² | - |
| 1777981985 | 12.22° C | 99% | 1015.4 hPa | 1.02 mm | - | 21 W/m² | - |
| 1777981679 | 12.22° C | 99% | 1015.5 hPa | 1.02 mm | - | 6 W/m² | - |
| 1777981381 | 12.22° C | 99% | 1015.5 hPa | 1.02 mm | - | 2 W/m² | - |
| 1777981066 | 12.78° C | 99% | 1015.6 hPa | 1.02 mm | - | 1 W/m² | - |
| 1777980760 | 12.78° C | 99% | 1015.6 hPa | 0.51 mm | - | 0 W/m² | - |
| 1777980454 | 12.78° C | 99% | 1015.6 hPa | 0.51 mm | - | 0 W/m² | - |
| 1777980148 | 12.78° C | 99% | 1015.8 hPa | 0 mm | - | 0 W/m² | - |
| 1777979842 | 12.78° C | 99% | 1015.8 hPa | 0 mm | - | 0 W/m² | - |
| 1777979545 | 12.78° C | 99% | 1015.8 hPa | 0 mm | - | 1 W/m² | - |
| 1777979230 | 12.78° C | 99% | 1015.8 hPa | 0 mm | - | 1 W/m² | - |
| 1777978924 | 12.78° C | 99% | 1015.8 hPa | 0 mm | - | 1 W/m² | - |
* Rain latest hour (hover to see other rain measurements)
** Current wind speed in m/s (hover to see current wind gust speed)